Flag for Eritrea Weather past 2 weeks in Teseney, Eritrea

Now
N/A

Clear.


Feels Like: N/A
Forecast: 77 / 108 °F
Wind: 5 mph from North

Location: Khartoum Airport

Current Time: Mar 28, 2015 at 10:06:45 PM

Latest Report: Mar 28, 2015 at 9:30 PM


Visibility: 10 mi

Pressure: 29.71 "Hg

Humidity: N/A

Dew point: N/A

Location of TeseneyLocation

Historic Weather in Teseney — Graph

°F

Teseney temperature yesterday

Maximum temperature yesterday: 104 °F (at 2:00 PM)
Minimum temperature yesterday: 81 °F (at 6:00 AM)
Average temperature yesterday: 92 °F

Past Weeks' High & Low Weather Summary

 TemperatureHumidityPressure
High108 °F (Mar 28, 3:00 PM)33% (Mar 17, 6:00 AM)32.52 "Hg (Mar 17, 6:00 AM)
Low70 °F (Mar 20, 7:00 AM)4% (Mar 19, 5:00 PM)29.65 "Hg (Mar 28, 4:30 PM)
Average87 °F11%29.84 "Hg
* Reported Mar 13 9:00 PM — Mar 28 9:00 PM, Teseney, Weather by CustomWeather, © 2015

Note: Actual official high and low records may vary slightly from our data, if they occured in-between our weather recording intervals... More about our weather records

Advertising

Teseney weather history for previous 24 hours

 ConditionsComfort  
Time TempWeatherWind HumidityBarometerVisibility
9:00 PM
Sat, Mar 28
97 °FClear.5 mph11%29.71 "Hg10 mi
8:30 PMN/AClear.3 mphN/A29.71 "Hg10 mi
8:00 PM99 °FClear.3 mph10%29.68 "Hg10 mi
7:30 PMN/AClear.2 mphN/A29.68 "Hg10 mi
7:00 PM102 °FSunny.5 mph8%29.68 "Hg10 mi
6:30 PMN/ASunny.5 mphN/A29.68 "Hg10 mi
6:00 PM108 °FSunny.5 mph6%29.65 "Hg10 mi
5:30 PMN/ASunny.5 mphN/A29.65 "Hg10 mi
5:00 PM108 °FSunny.3 mph6%29.65 "Hg10 mi
4:30 PMN/ASunny.5 mphN/A29.65 "Hg10 mi
4:00 PM108 °FSunny.3 mph6%29.68 "Hg10 mi
3:30 PMN/ASunny.3 mphN/A29.68 "Hg10 mi
3:00 PM108 °FSunny.7 mph6%29.68 "Hg10 mi
2:30 PMN/ASunny.5 mphN/A29.68 "Hg10 mi
2:00 PM106 °FSunny.8 mph8%29.71 "Hg10 mi
1:30 PMN/ASunny.5 mphN/A29.71 "Hg10 mi
1:00 PM104 °FSunny.5 mph8%29.74 "Hg10 mi
12:30 PMN/ASunny.10 mphN/A29.74 "Hg10 mi
12:00 PM102 °FSunny.8 mph6%29.77 "Hg10 mi
11:30 AMN/ASunny.9 mphN/A29.77 "Hg10 mi
11:00 AM99 °FSunny.13 mph7%29.80 "Hg10 mi
10:30 AMN/ASunny.10 mphN/A29.77 "Hg10 mi
10:00 AM93 °FSunny.9 mph12%29.77 "Hg10 mi
9:30 AMN/ASunny.7 mphN/A29.77 "Hg10 mi
9:00 AM88 °FSunny.8 mph11%29.77 "Hg10 mi
8:30 AMN/ASunny.7 mphN/A29.77 "Hg10 mi
8:00 AM82 °FSunny.2 mph19%29.77 "Hg10 mi
7:30 AMN/ASunny.5 mphN/A29.74 "Hg10 mi
7:00 AM79 °FSunny.6 mph21%29.74 "Hg10 mi
6:30 AMN/AClear.6 mphN/A29.74 "Hg10 mi
5:30 AMN/AClear.7 mphN/A29.74 "Hg10 mi
5:00 AM84 °FClear.7 mph16%29.71 "Hg10 mi
3:30 AMN/AClear.10 mphN/A29.71 "Hg10 mi
3:00 AM84 °FClear.10 mph16%29.74 "Hg10 mi
2:30 AMN/AClear.8 mphN/A29.74 "Hg10 mi
2:00 AM86 °FClear.5 mph13%29.74 "Hg10 mi
1:30 AMN/AClear.7 mphN/A29.74 "Hg10 mi
1:00 AM88 °FClear.6 mph15%29.74 "Hg10 mi
12:30 AMN/AClear.5 mphN/A29.74 "Hg10 mi
12:00 AM90 °FClear.6 mph17%29.74 "Hg10 mi
11:30 PM
Fri, Mar 27
N/AClear.5 mphN/A29.74 "Hg10 mi
11:00 PM91 °FClear.2 mph18%29.74 "Hg10 mi
10:30 PMN/AClear.2 mphN/A29.74 "Hg10 mi
Weather by CustomWeather, © 2015

See weather overviewHow to use our weather pages